User: anonymous   Login
Location: Unspecified
(0.0000°N, 0.0000°E)
Time: 11:32:33
(UTC+00:00)
Language:

Optus B3 - Orbit

View from above orbital plane
View from above orbital plane
View from above satellite
View from above satellite

Ground track
Ground track

The orbit data is extracted from the following two-line orbital elements,

1 23227U 94055A   14352.61792499 -.00000068  00000-0  00000+0 0  6217
2 23227 005.8715 057.5831 0007005 204.6136 211.6053 01.00273857 74346
Epoch (UTC): 18 December 2014 14:49:48
Eccentricity: 0.0007005
inclination: 5.8715°
perigee height: 35756 km
apogee height: 35815 km
right ascension of ascending node: 57.5831°
argument of perigee: 204.6136°
revolutions per day: 1.00273857
mean anomaly at epoch: 211.6053°
orbit number at epoch: 7434

The dashed part of the orbit path shows where the satellite is in the earth's shadow,  

DLR